Time,TemperatureF,DewpointF,PressureIn,WindDirection,WindDirectionDegrees,WindSpeedMPH,WindSpeedGustMPH,Humidity,HourlyPrecipIn,Conditions,Clouds,dailyrainin,SoftwareType,DateUTC
2013-03-05 01:35:00,75.7,73.5,29.62,WSW,248,0.0,0.0,93,0.00,RA,,0.01,WeatherDisplay:10.37,2013-03-04 15:35:00,
2013-03-05 09:25:00,79.5,77.0,29.71,WSW,248,0.0,0.0,92,0.00,RA,,0.01,WeatherDisplay:10.37,2013-03-04 23:25:00,
2013-03-05 15:05:00,84.2,78.5,29.61,SSE,149,1.0,3.0,83,0.00,RA,,0.01,WeatherDisplay:10.37,2013-03-05 05:05:00,
2013-03-05 15:10:00,84.1,77.7,29.61,SSW,210,0.0,2.0,81,0.00,RA,,0.01,WeatherDisplay:10.37,2013-03-05 05:10:00,
2013-03-05 15:15:00,84.5,77.6,29.61,SW,221,0.0,2.0,80,0.00,RA,,0.01,WeatherDisplay:10.37,2013-03-05 05:15:00,
2013-03-05 15:20:00,85.1,77.5,29.61,South,190,1.0,2.0,78,0.00,RA,,0.01,WeatherDisplay:10.37,2013-03-05 05:20:00,
2013-03-05 15:25:00,85.3,77.7,29.62,SE,143,0.0,3.0,78,0.00,RA,,0.01,WeatherDisplay:10.37,2013-03-05 05:25:00,
2013-03-05 15:35:00,85.3,77.7,29.62,SE,135,0.0,3.0,78,0.00,RA,,0.01,WeatherDisplay:10.37,2013-03-05 05:35:00,
2013-03-05 15:40:00,84.8,77.6,29.63,SSW,204,2.0,5.0,79,0.00,RA,,0.01,WeatherDisplay:10.37,2013-03-05 05:40:00,
2013-03-05 15:45:00,84.2,77.7,29.63,SW,229,0.0,5.0,81,0.02,RA,,0.02,WeatherDisplay:10.37,2013-03-05 05:45:00,
2013-03-05 15:50:00,83.6,77.9,29.62,SW,223,0.0,4.0,83,0.02,RA,,0.05,WeatherDisplay:10.37,2013-03-05 05:50:00,
2013-03-05 15:55:00,83.3,78.0,29.62,South,182,0.0,3.0,84,0.00,RA,,0.05,WeatherDisplay:10.37,2013-03-05 05:55:00,
2013-03-05 16:00:00,83.4,78.1,29.62,SE,141,1.0,4.0,84,0.00,RA,,0.05,WeatherDisplay:10.37,2013-03-05 06:00:00,
2013-03-05 16:10:00,84.1,78.7,29.63,South,177,1.0,6.0,84,0.00,RA,,0.05,WeatherDisplay:10.37,2013-03-05 06:10:00,
2013-03-05 16:15:00,84.2,78.4,29.63,SSE,166,2.0,5.0,83,0.00,RA,,0.05,WeatherDisplay:10.37,2013-03-05 06:15:00,
2013-03-05 16:20:00,83.9,78.1,29.63,SSE,158,1.0,3.0,83,0.00,RA,,0.05,WeatherDisplay:10.37,2013-03-05 06:20:00,
2013-03-05 16:25:00,83.8,78.4,29.63,SSW,201,0.0,2.0,84,0.00,RA,,0.05,WeatherDisplay:10.37,2013-03-05 06:25:00,
2013-03-05 16:30:00,84.2,78.8,29.63,SW,214,0.0,2.0,84,0.00,RA,,0.05,WeatherDisplay:10.37,2013-03-05 06:30:00,
2013-03-05 16:35:00,84.3,78.2,29.63,SSW,206,1.0,4.0,82,0.00,RA,,0.05,WeatherDisplay:10.37,2013-03-05 06:35:00,
2013-03-05 16:40:00,84.9,79.1,29.63,South,179,0.0,1.0,83,0.00,RA,,0.05,WeatherDisplay:10.37,2013-03-05 06:40:00,
2013-03-05 16:50:00,85.5,79.0,29.63,South,179,1.0,3.0,81,0.00,RA,,0.05,WeatherDisplay:10.37,2013-03-05 06:50:00,
2013-03-05 16:55:00,85.2,78.7,29.62,SSW,207,0.0,2.0,81,0.00,RA,,0.05,WeatherDisplay:10.37,2013-03-05 06:55:00,
2013-03-05 17:00:00,84.8,78.7,29.63,SW,218,0.0,1.0,82,0.00,RA,,0.05,WeatherDisplay:10.37,2013-03-05 07:00:00,
2013-03-05 17:10:00,83.9,78.5,29.64,SW,218,0.0,1.0,84,0.00,RA,,0.05,WeatherDisplay:10.37,2013-03-05 07:10:00,
2013-03-05 17:15:00,83.4,78.4,29.65,SW,218,1.0,3.0,85,0.02,RA,,0.07,WeatherDisplay:10.37,2013-03-05 07:15:00,
2013-03-05 17:25:00,81.4,76.8,29.66,SW,231,0.0,4.0,86,0.01,RA,,0.09,WeatherDisplay:10.37,2013-03-05 07:25:00,
2013-03-05 17:30:00,80.5,76.3,29.66,SW,215,2.0,6.0,87,0.01,RA,,0.10,WeatherDisplay:10.37,2013-03-05 07:30:00,
2013-03-05 17:35:00,79.5,75.3,29.66,WSW,253,2.0,9.0,87,0.01,RA,,0.11,WeatherDisplay:10.37,2013-03-05 07:35:00,
2013-03-05 17:40:00,79.0,75.1,29.66,WSW,256,0.0,3.0,88,0.01,RA,,0.12,WeatherDisplay:10.37,2013-03-05 07:40:00,
2013-03-05 17:45:00,78.7,74.8,29.66,WSW,249,0.0,2.0,88,0.00,RA,,0.12,WeatherDisplay:10.37,2013-03-05 07:45:00,
2013-03-05 17:50:00,78.4,74.9,29.65,WSW,249,0.0,1.0,89,0.00,RA,,0.12,WeatherDisplay:10.37,2013-03-05 07:50:00,
2013-03-05 17:55:00,78.2,74.7,29.65,WSW,249,0.0,0.0,89,0.00,RA,,0.12,WeatherDisplay:10.37,2013-03-05 07:55:00,
2013-03-05 18:00:00,78.1,74.6,29.66,WSW,248,0.0,2.0,89,0.00,RA,,0.12,WeatherDisplay:10.37,2013-03-05 08:00:00,
2013-03-05 18:05:00,78.3,75.1,29.67,WSW,249,0.0,0.0,90,0.00,RA,,0.12,WeatherDisplay:10.37,2013-03-05 08:05:00,
2013-03-05 18:10:00,78.2,75.0,29.67,WSW,249,0.0,0.0,90,0.00,RA,,0.12,WeatherDisplay:10.37,2013-03-05 08:10:00,
2013-03-05 18:15:00,78.1,74.9,29.67,WSW,249,0.0,0.0,90,0.00,RA,,0.12,WeatherDisplay:10.37,2013-03-05 08:15:00,
2013-03-05 18:20:00,78.1,74.9,29.67,WSW,249,0.0,0.0,90,0.00,RA,,0.12,WeatherDisplay:10.37,2013-03-05 08:20:00,
2013-03-05 18:25:00,78.2,75.1,29.67,WSW,249,0.0,1.0,90,0.00,RA,,0.12,WeatherDisplay:10.37,2013-03-05 08:25:00,
2013-03-05 18:30:00,78.4,75.6,29.68,WSW,249,0.0,0.0,91,0.00,RA,,0.12,WeatherDisplay:10.37,2013-03-05 08:30:00,
2013-03-05 18:35:00,78.3,75.5,29.68,WSW,249,0.0,0.0,91,0.00,RA,,0.12,WeatherDisplay:10.37,2013-03-05 08:35:00,
2013-03-05 18:40:00,78.3,75.5,29.68,WSW,248,0.0,0.0,91,0.00,RA,,0.12,WeatherDisplay:10.37,2013-03-05 08:40:00,
2013-03-05 18:45:00,78.3,75.5,29.69,WSW,248,0.0,0.0,91,0.00,RA,,0.12,WeatherDisplay:10.37,2013-03-05 08:45:00,
2013-03-05 18:50:00,78.3,75.5,29.69,WSW,248,0.0,1.0,91,0.00,RA,,0.12,WeatherDisplay:10.37,2013-03-05 08:50:00,
2013-03-05 19:00:00,78.2,75.4,29.69,WSW,249,0.0,0.0,91,0.00,RA,,0.12,WeatherDisplay:10.37,2013-03-05 09:00:00,
2013-03-05 19:10:00,78.2,75.3,29.69,WSW,248,0.0,0.0,91,0.00,RA,,0.12,WeatherDisplay:10.37,2013-03-05 09:10:00,
2013-03-05 19:15:00,78.1,75.3,29.69,WSW,248,0.0,1.0,91,0.00,RA,,0.12,WeatherDisplay:10.37,2013-03-05 09:15:00,
2013-03-05 19:25:00,77.9,75.1,29.70,WSW,254,1.0,3.0,91,0.00,RA,,0.12,WeatherDisplay:10.37,2013-03-05 09:25:00,
2013-03-05 19:30:00,77.8,75.0,29.70,WSW,251,0.0,4.0,91,0.00,RA,,0.12,WeatherDisplay:10.37,2013-03-05 09:30:00,
2013-03-05 19:35:00,77.6,75.1,29.70,WSW,245,1.0,3.0,92,0.00,RA,,0.12,WeatherDisplay:10.37,2013-03-05 09:35:00,
2013-03-05 19:40:00,77.5,75.0,29.70,WSW,245,0.0,1.0,92,0.00,RA,,0.12,WeatherDisplay:10.37,2013-03-05 09:40:00,
2013-03-05 19:45:00,77.5,75.0,29.70,WSW,245,0.0,2.0,92,0.00,RA,,0.12,WeatherDisplay:10.37,2013-03-05 09:45:00,
2013-03-05 19:50:00,77.4,74.9,29.70,WSW,245,0.0,0.0,92,0.00,RA,,0.12,WeatherDisplay:10.37,2013-03-05 09:50:00,
2013-03-05 19:55:00,77.4,74.9,29.70,WSW,245,0.0,1.0,92,0.00,RA,,0.12,WeatherDisplay:10.37,2013-03-05 09:55:00,
2013-03-05 20:00:00,77.4,74.9,29.71,WSW,245,0.0,3.0,92,0.00,RA,,0.12,WeatherDisplay:10.37,2013-03-05 10:00:00,
2013-03-05 20:10:00,77.3,74.8,29.71,WSW,245,0.0,0.0,92,0.00,RA,,0.12,WeatherDisplay:10.37,2013-03-05 10:10:00,
2013-03-05 20:15:00,77.3,74.8,29.71,WSW,245,0.0,2.0,92,0.00,RA,,0.12,WeatherDisplay:10.37,2013-03-05 10:15:00,
2013-03-05 20:20:00,77.3,74.8,29.72,WSW,252,2.0,4.0,92,0.00,RA,,0.12,WeatherDisplay:10.37,2013-03-05 10:20:00,
2013-03-05 20:25:00,77.3,74.8,29.73,West,259,0.0,3.0,92,0.00,RA,,0.12,WeatherDisplay:10.37,2013-03-05 10:25:00,
2013-03-05 20:30:00,77.3,74.8,29.73,West,261,0.0,3.0,92,0.00,RA,,0.12,WeatherDisplay:10.37,2013-03-05 10:30:00,
2013-03-05 20:35:00,77.4,74.9,29.73,West,261,1.0,2.0,92,0.00,RA,,0.12,WeatherDisplay:10.37,2013-03-05 10:35:00,
2013-03-05 20:40:00,77.5,74.9,29.73,West,261,0.0,2.0,92,0.00,RA,,0.12,WeatherDisplay:10.37,2013-03-05 10:40:00,
2013-03-05 20:45:00,77.4,74.9,29.73,West,261,1.0,3.0,92,0.00,RA,,0.12,WeatherDisplay:10.37,2013-03-05 10:45:00,
2013-03-05 20:50:00,77.4,74.9,29.73,West,261,1.0,3.0,92,0.00,RA,,0.12,WeatherDisplay:10.37,2013-03-05 10:50:00,
2013-03-05 20:55:00,77.3,74.8,29.73,WSW,255,1.0,4.0,92,0.00,RA,,0.12,WeatherDisplay:10.37,2013-03-05 10:55:00,
2013-03-05 21:00:00,77.3,74.8,29.73,WSW,253,2.0,5.0,92,0.00,RA,,0.12,WeatherDisplay:10.37,2013-03-05 11:00:00,
2013-03-05 21:10:00,77.1,74.6,29.73,SW,235,1.0,2.0,92,0.00,RA,,0.12,WeatherDisplay:10.37,2013-03-05 11:10:00,
2013-03-05 21:15:00,77.1,74.6,29.73,SW,235,0.0,1.0,92,0.00,RA,,0.12,WeatherDisplay:10.37,2013-03-05 11:15:00,
2013-03-05 21:20:00,77.0,74.5,29.73,SW,235,0.0,2.0,92,0.00,RA,,0.12,WeatherDisplay:10.37,2013-03-05 11:20:00,
2013-03-05 21:25:00,77.0,74.5,29.73,SW,235,0.0,1.0,92,0.00,RA,,0.12,WeatherDisplay:10.37,2013-03-05 11:25:00,
2013-03-05 21:30:00,77.0,74.5,29.73,SW,235,0.0,0.0,92,0.00,RA,,0.12,WeatherDisplay:10.37,2013-03-05 11:30:00,
2013-03-05 21:35:00,77.0,74.5,29.73,SW,235,0.0,0.0,92,0.00,RA,,0.12,WeatherDisplay:10.37,2013-03-05 11:35:00,
2013-03-05 21:40:00,77.1,74.6,29.74,SW,235,0.0,1.0,92,0.00,RA,,0.12,WeatherDisplay:10.37,2013-03-05 11:40:00,
2013-03-05 21:45:00,77.0,74.5,29.74,SW,235,0.0,1.0,92,0.00,RA,,0.12,WeatherDisplay:10.37,2013-03-05 11:45:00,
2013-03-05 21:55:00,77.1,74.6,29.74,SW,235,0.0,2.0,92,0.00,RA,,0.12,WeatherDisplay:10.37,2013-03-05 11:55:00,
2013-03-05 22:00:00,77.1,74.6,29.73,WSW,237,1.0,3.0,92,0.00,RA,,0.12,WeatherDisplay:10.37,2013-03-05 12:00:00,
2013-03-05 22:10:00,77.4,74.9,29.73,WSW,241,0.0,2.0,92,0.00,RA,,0.12,WeatherDisplay:10.37,2013-03-05 12:10:00,
2013-03-05 22:15:00,77.6,75.1,29.73,WSW,240,0.0,1.0,92,0.00,RA,,0.12,WeatherDisplay:10.37,2013-03-05 12:15:00,
2013-03-05 22:25:00,78.0,75.5,29.73,WSW,240,0.0,3.0,92,0.00,RA,,0.12,WeatherDisplay:10.37,2013-03-05 12:25:00,
2013-03-05 22:30:00,78.1,75.6,29.73,WSW,240,0.0,2.0,92,0.00,RA,,0.12,WeatherDisplay:10.37,2013-03-05 12:30:00,
2013-03-05 22:35:00,78.1,75.6,29.73,WSW,240,0.0,2.0,92,0.00,RA,,0.12,WeatherDisplay:10.37,2013-03-05 12:35:00,
2013-03-05 22:40:00,78.1,75.6,29.72,WSW,240,0.0,1.0,92,0.00,RA,,0.12,WeatherDisplay:10.37,2013-03-05 12:40:00,
2013-03-05 22:50:00,78.0,75.5,29.72,WSW,240,0.0,3.0,92,0.00,RA,,0.12,WeatherDisplay:10.37,2013-03-05 12:50:00,
2013-03-05 22:55:00,77.8,75.3,29.72,WSW,240,0.0,1.0,92,0.00,RA,,0.12,WeatherDisplay:10.37,2013-03-05 12:55:00,
2013-03-05 23:00:00,77.7,75.2,29.72,WSW,240,1.0,3.0,92,0.00,RA,,0.12,WeatherDisplay:10.37,2013-03-05 13:00:00,
2013-03-05 23:10:00,77.6,75.1,29.71,WSW,242,0.0,3.0,92,0.00,RA,,0.12,WeatherDisplay:10.37,2013-03-05 13:10:00,
2013-03-05 23:15:00,77.5,75.0,29.71,WSW,242,0.0,1.0,92,0.00,RA,,0.12,WeatherDisplay:10.37,2013-03-05 13:15:00,
2013-03-05 23:20:00,77.5,75.0,29.71,WSW,242,0.0,0.0,92,0.00,RA,,0.12,WeatherDisplay:10.37,2013-03-05 13:20:00,
2013-03-05 23:25:00,77.4,74.9,29.70,WSW,242,0.0,2.0,92,0.00,RA,,0.12,WeatherDisplay:10.37,2013-03-05 13:25:00,
2013-03-05 23:30:00,77.3,74.8,29.70,WSW,242,0.0,0.0,92,0.00,RA,,0.12,WeatherDisplay:10.37,2013-03-05 13:30:00,
2013-03-05 23:40:00,77.1,74.6,29.71,WSW,242,0.0,0.0,92,0.00,RA,,0.12,WeatherDisplay:10.37,2013-03-05 13:40:00,
2013-03-05 23:45:00,77.0,74.5,29.71,WSW,242,0.0,0.0,92,0.00,RA,,0.12,WeatherDisplay:10.37,2013-03-05 13:45:00,
2013-03-05 23:50:00,77.0,74.5,29.70,WSW,242,0.0,1.0,92,0.00,RA,,0.12,WeatherDisplay:10.37,2013-03-05 13:50:00,
2013-03-05 23:55:00,77.0,74.5,29.71,WSW,242,0.0,1.0,92,0.00,RA,,0.12,WeatherDisplay:10.37,2013-03-05 13:55:00,